{"data":{"norad_id":50490,"intl_designator":"2021-132X","name":"ONEWEB-0413","alt_names":[],"object_type":"PAYLOAD","status":"ACTIVE","operator":null,"country":"UK","launch_date":"2021-12-27","launch_site_code":"TYMSC","launch_vehicle":null,"mission":null,"orbit_class":"UNKNOWN","rcs_meters":null,"size_class":null,"mass_kg":null,"dimensions":null,"purposes":["comms"],"wikipedia_slug":null,"has_3d_model":false,"image_url":null,"decayed_at":null,"tle_current":{"epoch":"2026-05-25T01:02:34.697760Z","epoch_age_seconds":74567,"freshness":"FRESH","line1":"1 50490U 21132X   26145.04345715  .00000044  00000+0  79868-4 0  9993","line2":"2 50490  87.9160 340.0633 0001805  79.4157 280.7178 13.18687189218542","mean_motion":13.18687189,"eccentricity":0.0001805,"inclination_deg":87.916,"raan_deg":340.0633,"arg_perigee_deg":79.4157,"mean_anomaly_deg":280.7178,"bstar":7.9868e-5,"rev_number":21854,"period_min":109.19951388107,"perigee_km":1188.37257625,"apogee_km":1191.1045793335,"semimajor_km":7567.8755777918,"source":"CELESTRAK","updated_at":"2026-05-25T13:38:22.532558Z"}}}